Location: Dzierzno
(50.6159°N, 19.2852°E)
Time: 20:50:42
(UTC+00:00)

Cosmos 2278 Rocket - Pass Details

Date: 18 November 2025
Orbit: 841 x 843 km, 71.0° (Epoch: 10 December)

Event Time Altitude Azimuth Distance (km) Brightness Sun altitude
Rises 17:37:31 0° 234° (SW) 3,390 6.1 -25.8°
Reaches altitude 10° 17:40:07 10° 242° (WSW) 2,459 5.4 -26.2°
Maximum altitude 17:45:22 39° 311° (NW) 1,246 3.4 -27.0°
Enters shadow 17:48:36 21° 7° (N) 1,805 3.8 -27.6°
